Change the Weather History Date:

Monday, June 9, 2014

  Actual Average Record
Temperature  
Mean Temperature 62 °F -  
Max Temperature 66 °F 73 °F 90 °F (1984)
Min Temperature 59 °F 54 °F 36 °F (1977)
Degree Days  
Heating Degree Days 2    
Growing Degree Days 12 (Base 50)    
Moisture  
Dew Point 57 °F    
Average Humidity 77    
Maximum Humidity 88    
Minimum Humidity 73    
Precipitation  
Precipitation 0.00 in - - ()
Sea Level Pressure  
Sea Level Pressure 29.96 in    
Wind  
Wind Speed 3 mph (NNE)    
Max Wind Speed 9 mph    
Max Gust Speed -    
Visibility 10 miles    
Events      
Averages and records for this station are not official NWS values.
T = Trace of Precipitation, MM = Missing Value Source: NWS Daily Summary

Daily Weather History Graph

Daily Weather History Graph

Search for Another Location

Airport or City:

Trip Planner

Search our weather history database for the weather conditions in past years. The results will help you decide how hot, cold, wet, or windy it might be!

Date:

Astronomy

Jun. 09, 2014 Rise Set
Actual Time 5:48 AM EDT 8:50 PM EDT
Civil Twilight 5:15 AM EDT 9:23 PM EDT
Nautical Twilight 4:32 AM EDT 10:05 PM EDT
Astronomical Twilight 3:43 AM EDT 10:55 PM EDT
Moon 5:08 PM EDT (6/9) 3:15 AM EDT (6/9)
Length of Visible Light 16h 08m
Length of Day
15h 01m
Waxing Gibbous, 85% of the Moon is Illuminated
Jun 9
Waxing Gibbous
Jun 13
Full
Jun 19
Last Quarter
Jun 27
New
Jul 5
First Quarter

Hourly Weather History & Observations

Time (EDT) Temp. Dew Point Humidity Pressure Visibility Wind Dir Wind Speed Gust Speed Precip Events Conditions
12:15 AM 60.8 °F 53.6 °F 77% 29.94 in 10.0 mi Calm Calm - N/A   Overcast
12:35 AM - - N/A% 29.94 in 10.0 mi West 3.5 mph - N/A   Overcast
12:55 AM - - N/A% 29.93 in 5.0 mi West 3.5 mph - N/A   Overcast
1:15 AM - - N/A% 29.94 in 5.0 mi Calm Calm - N/A   Overcast
1:35 AM 59.0 °F 55.4 °F 88% 29.94 in 5.0 mi WNW 4.6 mph - N/A   Overcast
1:55 AM - - N/A% 29.94 in 6.0 mi Calm Calm - N/A   Overcast
2:15 AM - - N/A% 29.93 in 8.0 mi Calm Calm - N/A   Overcast
2:55 AM - - N/A% 29.94 in 10.0 mi West 3.5 mph - N/A   Overcast
3:15 AM - - N/A% 29.93 in 10.0 mi Calm Calm - N/A   Overcast
3:35 AM - - N/A% 29.94 in 10.0 mi Calm Calm - N/A   Overcast
3:55 AM - - N/A% 29.93 in 10.0 mi Calm Calm - N/A   Overcast
4:15 AM - - N/A% 29.94 in 10.0 mi NNW 4.6 mph - N/A   Overcast
4:55 AM - - N/A% 29.93 in 10.0 mi NNW 4.6 mph - N/A   Overcast
5:15 AM - - N/A% 29.93 in 10.0 mi NNW 4.6 mph - N/A   Overcast
5:35 AM - - N/A% 29.93 in 10.0 mi NNW 3.5 mph - N/A   Overcast
5:55 AM - - N/A% 29.94 in 10.0 mi NNW 3.5 mph - N/A   Overcast
6:15 AM - - N/A% 29.94 in 10.0 mi NNW 4.6 mph - N/A   Overcast
6:35 AM - - N/A% 29.94 in 10.0 mi North 3.5 mph - N/A   Overcast
6:55 AM - - N/A% 29.95 in 10.0 mi NW 3.5 mph - N/A   Overcast
7:15 AM - - N/A% 29.96 in 10.0 mi North 4.6 mph - N/A   Overcast
7:35 AM - - N/A% 29.96 in 10.0 mi North 4.6 mph - N/A   Overcast
7:55 AM 60.8 °F 55.4 °F 82% 29.97 in 10.0 mi NNE 4.6 mph - N/A   Overcast
8:15 AM - - N/A% 29.97 in 10.0 mi NNE 4.6 mph - N/A   Overcast
8:35 AM - - N/A% 29.97 in 10.0 mi NE 6.9 mph - N/A   Overcast
8:55 AM - - N/A% 29.97 in 10.0 mi NE 5.8 mph - N/A   Scattered Clouds
9:15 AM - - N/A% 29.97 in 10.0 mi ENE 6.9 mph - N/A   Mostly Cloudy
9:35 AM - - N/A% 29.98 in 10.0 mi North 4.6 mph - N/A   Overcast
9:55 AM - - N/A% 29.97 in 10.0 mi ENE 5.8 mph - N/A   Overcast
10:15 AM 64.4 °F 55.4 °F 73% 29.97 in 10.0 mi NNE 9.2 mph - N/A   Overcast
10:35 AM 64.4 °F 55.4 °F 73% 29.98 in 10.0 mi NE 8.1 mph - N/A   Overcast
11:15 AM 64.4 °F 55.4 °F 73% 29.98 in 10.0 mi NE 5.8 mph - N/A   Overcast
11:35 AM 64.4 °F 55.4 °F 73% 29.97 in 10.0 mi NE 5.8 mph - N/A   Overcast
11:55 AM 64.4 °F 55.4 °F 73% 29.98 in 10.0 mi NNE 5.8 mph - N/A   Overcast
12:35 PM 64.4 °F 55.4 °F 73% 29.98 in 10.0 mi NE 4.6 mph - N/A   Overcast
12:55 PM 66.2 °F 57.2 °F 73% 29.98 in 10.0 mi NE 4.6 mph - N/A   Overcast
1:15 PM 66.2 °F 57.2 °F 73% 29.99 in 10.0 mi East 4.6 mph - N/A   Overcast
1:35 PM 66.2 °F 57.2 °F 73% 29.99 in 10.0 mi Calm Calm - N/A   Overcast
1:55 PM 66.2 °F 57.2 °F 73% 30.00 in 10.0 mi East 5.8 mph - N/A   Overcast
2:15 PM 66.2 °F 57.2 °F 73% 29.99 in 10.0 mi ESE 3.5 mph - N/A   Overcast
2:35 PM 66.2 °F 57.2 °F 73% 29.98 in 10.0 mi ESE 5.8 mph - N/A   Overcast
4:15 PM 66.2 °F 57.2 °F 73% 29.96 in 10.0 mi SSE 4.6 mph - N/A   Overcast
4:35 PM 66.2 °F 57.2 °F 73% 29.96 in 10.0 mi SE 5.8 mph - N/A   Overcast
4:55 PM 64.4 °F 57.2 °F 77% 29.96 in 10.0 mi SE 4.6 mph - N/A   Overcast
5:15 PM 64.4 °F 57.2 °F 77% 29.96 in 10.0 mi Calm Calm - N/A   Overcast
5:35 PM 66.2 °F 57.2 °F 73% 29.95 in 10.0 mi ESE 3.5 mph - N/A   Overcast
5:55 PM 66.2 °F 57.2 °F 73% 29.95 in 10.0 mi Calm Calm - N/A   Overcast
6:15 PM 66.2 °F 57.2 °F 73% 29.96 in 10.0 mi Calm Calm - N/A   Overcast
6:35 PM 66.2 °F 57.2 °F 73% 29.96 in 10.0 mi ESE 3.5 mph - N/A   Overcast
6:55 PM 66.2 °F 57.2 °F 73% 29.96 in 10.0 mi Calm Calm - N/A   Overcast
7:15 PM 66.2 °F 57.2 °F 73% 29.96 in 10.0 mi Calm Calm - N/A   Overcast
7:35 PM 66.2 °F 59.0 °F 78% 29.96 in 10.0 mi Calm Calm - N/A   Overcast
7:55 PM 66.2 °F 57.2 °F 73% 29.96 in 10.0 mi Calm Calm - N/A   Overcast
8:15 PM 66.2 °F 59.0 °F 78% 29.97 in 10.0 mi Calm Calm - N/A   Overcast
8:35 PM 66.2 °F 57.2 °F 73% 29.96 in 10.0 mi Calm Calm - N/A   Overcast
8:55 PM 64.4 °F 57.2 °F 77% 29.97 in 10.0 mi Calm Calm - N/A   Overcast
9:15 PM 64.4 °F 59.0 °F 83% 29.97 in 10.0 mi Calm Calm - N/A   Overcast
9:35 PM 64.4 °F 59.0 °F 83% 29.97 in 10.0 mi Calm Calm - N/A   Overcast
9:55 PM 64.4 °F 59.0 °F 83% 29.97 in 10.0 mi Calm Calm - N/A   Overcast
10:15 PM 62.6 °F 59.0 °F 88% 29.98 in 10.0 mi Calm Calm - N/A   Overcast
10:35 PM 64.4 °F 59.0 °F 83% 29.98 in 10.0 mi Calm Calm - N/A   Overcast
10:55 PM 62.6 °F 59.0 °F 88% 29.98 in 10.0 mi Calm Calm - N/A   Overcast
11:15 PM 62.6 °F 59.0 °F 88% 29.98 in 10.0 mi ESE 4.6 mph - N/A   Overcast
11:35 PM - - N/A% 29.98 in 10.0 mi Calm Calm - N/A   Overcast
11:55 PM - - N/A% 29.98 in 10.0 mi Calm Calm - N/A   Overcast